CHINASAT 6A

导读

CHINASAT 6A(中星6A)是中国于2010年9月4日成功发射的地球静止轨道通信卫星,由中国航天科技集团研制。该卫星主要承担广播电视传输、通信保障任务,可为国内中央及地方媒体提供稳定的广播电视信号传输服务,同时支持通信、远程教育等多种应用,进一步完善了我国空间通信基础设施,满足了广播电视与通信业务的发展需求,提升了卫星通信覆盖能力与服务可靠性,在我国广电传输与通信领域发挥着重要作用。

Basic Information
目录编号:
37150
目录名称:
CHINASAT 6A
国际标识:
2010-042A
轨道中心:
EARTH
卫星名称:
CHINASAT 6A
卫星全名:
--
卫星状态:
在轨 (已飞行5805 天)
发射日期:
2010-09-04 UTC
国别 :
中国 (CN)
星等 :
--
Orbit Information
数据来源 国际轨道数据 AOE轨道数据
星历时间 2026-07-26T18:58:24+0800
1天前
查看轨道信息
2026-07-24T16:00:00+0800
3天前
查看轨道信息
半长轴 42324.46km 42324.318km
偏心率 0.0000495 0.0000538
轨道倾角 4.323° 4.318°
近地点辐角 330.050° 323.229°
升交点赤经 76.733° 76.761°
平近点角 29.172° 353.606°
近地点 35944.227km 35943.903km
远地点 35948.419km 35948.459km
周期 1444.265分钟 1444.258分钟
每日圈数 0.997047 0.997052
Detailed Information
使用方式:
暂无
2D Orbit Map
3D Orbit Map
Orbit Altitude Analysis Chart
Orbit Inclination Analysis Chart
Orbit Comprehensive Analysis Chart
View Comprehensive Chart